Hermosillo, México

8:46 AM MST en Mayo 20, 2018 (GMT -0700)
Gen Ignacio Pesqueira Garcia

Tiempo Historia de MMHO - Febrero, 2018

Change the Weather History Date:

Miércoles, Febrero 14, 2018

  Actual Average Record
Temperature  
Temperatura media 69 ° F -  
Temperatura máxima 77 ° F 79 ° F 97 ° F (2014)
Temperatura mínima 61 ° F 49 ° F 35 ° F (2004)
Cooling Degree Days 4    
Growing Degree Days 19 (Base 50)    
Moisture  
Punto de rocío 51 ° F    
Average Humidity 49    
Maximum Humidity 68    
Minimum Humidity 29    
Precipitación  
Precipitación 0.00 pul - - ()
Presión al nivel del mar  
Presión al nivel del mar 30.10 pul    
Viento  
Velocidad del viento 2 mph ()    
Velocidad máxima del viento 7 mph    
Max Gust Speed -    
Visibilidad 9.4 Millas    
Eventos      
Averages and records for this station are not official NWS values.
T = Trace of Precipitation, MM = Missing Value Source: Averaged Metar Reports

Daily Weather History Graph

Daily Weather History Graph

Search for Another Location

Airport or City:

Astronomía

Feb. 14, 2018 Salida Puesta
Hora real 7:03 AM MST 6:13 PM MST
Crepúsculo civil 6:39 AM MST 6:37 PM MST
Crepúsculo náutico 6:11 AM MST 7:05 PM MST
Crepúsculo astronómico 5:43 AM MST 7:33 PM MST
Luna 6:19 AM MST (2/14) 5:23 PM MST (2/14)
Horas de luz 11h 58m
Horas de luz
11h 09m
Creciente menguante, 1% of the Moon is Illuminated
Feb 14
Creciente menguante
Feb 15
Nueva
Feb 23
Cuarto creciente
Mar 1
Luna llena
Mar 9
Cuarto menguante

Hourly Weather History & Observations

Hora (MST) Temp. Punto de rocío Humedad Presión Visibilidad Wind Dir Velocidad del viento Velocidad de ráfagas Precip Eventos Condiciones
12:41 AM 68.0 ° F 48.2 ° F 49% 30.17 pul 10.0 mi Sin viento Sin viento - N/A   Nublado
1:42 AM 66.2 ° F 48.2 ° F 52% 30.14 pul 10.0 mi Sin viento Sin viento - N/A   Nublado
2:41 AM 66.2 ° F 48.2 ° F 52% 30.12 pul 10.0 mi Este 3.5 mph - N/A   Nublado
3:41 AM 64.4 ° F 50.0 ° F 59% 30.11 pul 10.0 mi Oeste 3.5 mph - N/A   Nublado
4:45 AM 64.4 ° F 48.2 ° F 56% 30.09 pul 10.0 mi Sin viento Sin viento - N/A   Nublado
5:40 AM 64.4 ° F 48.2 ° F 56% 30.08 pul 10.0 mi Sin viento Sin viento - N/A   Nublado
6:40 AM 64.4 ° F 48.2 ° F 56% 30.10 pul 10.0 mi NNO 4.6 mph - N/A   Nublado
7:45 AM 63 ° F 46 ° F 44% 30.12 pul 7 mi ENE 4.5 mph - -   Muy nublado
7:46 AM 66.2 ° F 44.6 ° F 46% 30.12 pul 10.0 mi Sin viento Sin viento - N/A   Nublado
8:45 AM 68.0 ° F 48.2 ° F 49% 30.14 pul 10.0 mi Sin viento Sin viento - N/A   Nublado
9:44 AM 69.8 ° F 48.2 ° F 46% 30.15 pul 10.0 mi NO 6.9 mph - N/A   Nublado
10:40 AM 71.6 ° F 46.4 ° F 41% 30.16 pul 10.0 mi Sin viento Sin viento - N/A   Nublado
10:45 AM 75 ° F 62 ° F 54% 30.14 pul 7 mi OSO 4.5 mph - -   Muy nublado
11:44 AM 73.4 ° F 46.4 ° F 38% 30.16 pul 10.0 mi NO 5.8 mph - N/A   Nublado
12:40 PM 75.2 ° F 46.4 ° F 36% 30.13 pul 10.0 mi NO 5.8 mph - N/A   Nublado
1:40 PM 75.2 ° F 48.2 ° F 38% 30.10 pul 10.0 mi Norte 4.6 mph - N/A   Nublado
1:44 PM 77 ° F 51 ° F 29% 30.06 pul 7 mi NE 2.2 mph - -   Muy nublado
2:40 PM 77.0 ° F 51.8 ° F 41% 30.07 pul 10.0 mi Sin viento Sin viento - N/A   Nublado
3:40 PM 77.0 ° F 53.6 ° F 44% 30.05 pul 10.0 mi Sin viento Sin viento - N/A   Nublado
4:40 PM 78.8 ° F 51.8 ° F 39% 30.05 pul 10.0 mi Sin viento Sin viento - N/A   Nublado
4:41 PM 76 ° F 53 ° F 33% 30.03 pul 7 mi NE 2.2 mph - -   Muy nublado
5:40 PM 77.0 ° F 55.4 ° F 47% 30.06 pul 10.0 mi OSO 4.6 mph - N/A   Nublado
6:40 PM 73.4 ° F 55.4 ° F 53% 30.07 pul 10.0 mi Sin viento Sin viento - N/A   Nublado
7:40 PM 66 ° F 52 ° F 52% 30.08 pul 5 mi NE 2.2 mph - -   Muy nublado
7:40 PM 71.6 ° F 55.4 ° F 57% 30.07 pul 10.0 mi Sin viento Sin viento - N/A   Nublado
8:40 PM 71.6 ° F 55.4 ° F 57% 30.09 pul 10.0 mi Sin viento Sin viento - N/A   Nublado
9:45 PM 68.0 ° F 55.4 ° F 64% 30.10 pul 10.0 mi Sin viento Sin viento - N/A   Nublado
10:41 PM 69.8 ° F 53.6 ° F 56% 30.12 pul 10.0 mi Sin viento Sin viento - N/A   Nublado
11:59 PM 66.2 ° F 55.4 ° F 68% 30.10 pul 10.0 mi ONO 3.5 mph - N/A   Nublado